When you browse on this site, cookies collect data to enhance your experience and personalize the content and advertising you see.
Visit our Privacy Policy to learn more. By continuing to use the site, you agree to this use of cookies and data.
  • In Lithuania
  • List of Countries
  • For 7 days
  • Water Temperature
  • Satellite Maps
  • Weather Map
  • Weather Widgets
  • user-avatar
    Login

    Hourly Weather Nottingham

    Today, 23 April, Tuesday

    Time Temperature Precipitation Wind Pressure Humidity
    00:00 +10°C° 0 mm 2 mps 746 mmHg 78%
    01:00 +10°C° 0 mm 2 mps 745 mmHg 79%
    02:00 +10°C° 0 mm 2 mps 745 mmHg 81%
    03:00 +10°C° 0 mm 2 mps 745 mmHg 82%
    04:00 +10°C° 0 mm 3 mps 745 mmHg 84%
    05:00 +10°C° 0 mm 3 mps 745 mmHg 86%
    06:00 +10°C° 0 mm 3 mps 744 mmHg 88%
    07:00 +12°C° 0 mm 4 mps 744 mmHg 83%
    08:00 +13°C° 0 mm 4 mps 744 mmHg 79%
    09:00 +15°C° 0 mm 4 mps 744 mmHg 75%
    10:00 +16°C° 0 mm 5 mps 744 mmHg 72%
    11:00 +17°C° 0 mm 5 mps 744 mmHg 69%
    12:00 +19°C° 0 mm 5 mps 744 mmHg 66%
    13:00 +19°C° 0 mm 5 mps 743 mmHg 66%
    14:00 +20°C° 0 mm 5 mps 743 mmHg 65%
    15:00 +20°C° 0 mm 5 mps 743 mmHg 64%
    16:00 +17°C° 0 mm 5 mps 743 mmHg 68%
    17:00 +16°C° 0 mm 5 mps 743 mmHg 72%
    18:00 +15°C° 0 mm 5 mps 742 mmHg 76%
    19:00 +13°C° 0 mm 4 mps 742 mmHg 80%
    20:00 +11°C° 0 mm 4 mps 742 mmHg 85%
    21:00 +10°C° 0 mm 4 mps 742 mmHg 89%
    22:00 +8°C° 0 mm 4 mps 742 mmHg 91%
    23:00 +9°C° 0 mm 3 mps 742 mmHg 93%

    Tomorrow, 24 April, Wednesday

    Time Temperature Precipitation Wind Pressure Humidity
    00:00 +8°C° 0 mm 3 mps 741 mmHg 95%
    01:00 +8°C° 0 mm 3 mps 741 mmHg 95%
    02:00 +8°C° 0 mm 3 mps 740 mmHg 96%
    03:00 +8°C° 0 mm 3 mps 740 mmHg 96%
    04:00 +8°C° 0 mm 4 mps 740 mmHg 96%
    05:00 +8°C° 0 mm 4 mps 739 mmHg 95%
    06:00 +8°C° 0 mm 4 mps 739 mmHg 95%
    07:00 +11°C° 0.1 mm 4 mps 739 mmHg 92%
    08:00 +12°C° 0.1 mm 5 mps 739 mmHg 89%
    09:00 +13°C° 0.1 mm 5 mps 739 mmHg 86%
    10:00 +13°C° 1.5 mm 5 mps 739 mmHg 87%
    11:00 +11°C° 1.5 mm 6 mps 739 mmHg 89%
    12:00 +10°C° 1.5 mm 6 mps 739 mmHg 90%
    13:00 +11°C° 0.1 mm 6 mps 740 mmHg 84%
    14:00 +13°C° 0.1 mm 6 mps 740 mmHg 78%
    15:00 +14°C° 0.1 mm 6 mps 740 mmHg 72%
    16:00 +14°C° 0.1 mm 5 mps 740 mmHg 72%
    17:00 +13°C° 0.1 mm 4 mps 741 mmHg 73%
    18:00 +13°C° 0.1 mm 4 mps 741 mmHg 74%
    19:00 +12°C° 0 mm 4 mps 741 mmHg 77%
    20:00 +10°C° 0 mm 4 mps 742 mmHg 80%
    21:00 +8°C° 0 mm 4 mps 742 mmHg 84%
    22:00 +8°C° 0 mm 4 mps 742 mmHg 84%
    23:00 +7°C° 0 mm 4 mps 742 mmHg 85%

    Day after tomorrow, 25 April, Thursday

    Time Temperature Precipitation Wind Pressure Humidity
    00:00 +8°C° 0 mm 3 mps 742 mmHg 85%
    01:00 +7°C° 0 mm 4 mps 741 mmHg 86%
    02:00 +7°C° 0 mm 4 mps 741 mmHg 87%
    03:00 +6°C° 0 mm 4 mps 741 mmHg 88%
    04:00 +7°C° 0 mm 5 mps 740 mmHg 88%
    05:00 +8°C° 0 mm 5 mps 740 mmHg 87%
    06:00 +8°C° 0 mm 5 mps 740 mmHg 87%
    07:00 +9°C° 0.4 mm 5 mps 740 mmHg 87%
    08:00 +9°C° 0.4 mm 5 mps 740 mmHg 87%
    09:00 +11°C° 0.4 mm 4 mps 740 mmHg 87%
    10:00 +9°C° 1.5 mm 5 mps 740 mmHg 87%
    11:00 +9°C° 1.5 mm 5 mps 741 mmHg 87%
    12:00 +9°C° 1.5 mm 5 mps 741 mmHg 87%
    13:00 +10°C° 0.2 mm 6 mps 741 mmHg 80%
    14:00 +11°C° 0.2 mm 7 mps 741 mmHg 74%
    15:00 +12°C° 0.2 mm 8 mps 742 mmHg 67%
    16:00 +11°C° 0.2 mm 8 mps 742 mmHg 69%
    17:00 +10°C° 0.2 mm 7 mps 743 mmHg 71%
    18:00 +10°C° 0.2 mm 7 mps 743 mmHg 73%
    19:00 +9°C° 0.1 mm 7 mps 744 mmHg 74%
    20:00 +8°C° 0.1 mm 7 mps 744 mmHg 75%
    21:00 +8°C° 0.1 mm 7 mps 745 mmHg 76%
    22:00 +7°C° 0 mm 6 mps 745 mmHg 77%
    23:00 +7°C° 0 mm 6 mps 745 mmHg 78%

    26 April, Friday

    Time Temperature Precipitation Wind Pressure Humidity
    00:00 +7°C° 0 mm 6 mps 746 mmHg 79%
    01:00 +7°C° 0 mm 6 mps 746 mmHg 80%
    02:00 +7°C° 0 mm 6 mps 746 mmHg 82%
    03:00 +6°C° 0 mm 5 mps 746 mmHg 84%
    04:00 +6°C° 0 mm 5 mps 747 mmHg 85%
    05:00 +7°C° 0 mm 5 mps 747 mmHg 86%
    06:00 +7°C° 0 mm 5 mps 747 mmHg 87%
    07:00 +8°C° 0 mm 5 mps 748 mmHg 84%
    08:00 +9°C° 0 mm 6 mps 748 mmHg 80%
    09:00 +10°C° 0 mm 6 mps 748 mmHg 77%
    10:00 +11°C° 0.3 mm 6 mps 748 mmHg 76%
    11:00 +13°C° 0.3 mm 6 mps 748 mmHg 75%
    12:00 +14°C° 0.3 mm 6 mps 748 mmHg 74%
    13:00 +13°C° 1.3 mm 5 mps 749 mmHg 78%
    14:00 +12°C° 1.3 mm 5 mps 749 mmHg 81%
    15:00 +10°C° 1.3 mm 5 mps 749 mmHg 85%
    16:00 +10°C° 0.2 mm 5 mps 750 mmHg 82%
    17:00 +9°C° 0.2 mm 5 mps 751 mmHg 79%
    18:00 +8°C° 0.2 mm 5 mps 751 mmHg 76%
    19:00 +7°C° 0 mm 4 mps 752 mmHg 76%
    20:00 +6°C° 0 mm 4 mps 753 mmHg 76%
    21:00 +5°C° 0 mm 3 mps 754 mmHg 75%
    22:00 +4°C° 0 mm 3 mps 754 mmHg 76%
    23:00 +4°C° 0 mm 3 mps 754 mmHg 77%

    27 April, Saturday

    Time Temperature Precipitation Wind Pressure Humidity
    00:00 +4°C° 0 mm 3 mps 753 mmHg 79%
    01:00 +3°C° 1.2 mm 5 mps 752 mmHg 83%
    02:00 +3°C° 1.2 mm 6 mps 751 mmHg 87%
    03:00 +3°C° 1.2 mm 7 mps 750 mmHg 91%
    04:00 +4°C° 0.8 mm 7 mps 749 mmHg 91%
    05:00 +4°C° 0.8 mm 6 mps 748 mmHg 91%
    06:00 +6°C° 0.8 mm 5 mps 747 mmHg 92%
    07:00 +5°C° 0.3 mm 7 mps 748 mmHg 89%
    08:00 +5°C° 0.3 mm 9 mps 749 mmHg 87%
    09:00 +4°C° 0.3 mm 11 mps 750 mmHg 84%
    10:00 +6°C° 0.1 mm 10 mps 752 mmHg 76%
    11:00 +7°C° 0.1 mm 9 mps 754 mmHg 67%
    12:00 +9°C° 0.1 mm 8 mps 755 mmHg 59%
    13:00 +10°C° 0 mm 8 mps 756 mmHg 57%
    14:00 +10°C° 0 mm 8 mps 757 mmHg 56%
    15:00 +11°C° 0 mm 7 mps 758 mmHg 54%
    16:00 +10°C° 0 mm 6 mps 759 mmHg 59%
    17:00 +9°C° 0 mm 6 mps 760 mmHg 64%
    18:00 +8°C° 0 mm 5 mps 761 mmHg 69%
    19:00 +8°C° 0 mm 4 mps 761 mmHg 69%
    20:00 +8°C° 0 mm 3 mps 762 mmHg 69%
    21:00 +7°C° 0 mm 2 mps 762 mmHg 69%
    22:00 +7°C° 0.1 mm 3 mps 762 mmHg 73%
    23:00 +7°C° 0.1 mm 3 mps 762 mmHg 77%

    28 April, Sunday

    Time Temperature Precipitation Wind Pressure Humidity
    00:00 +5°C° 0.1 mm 3 mps 762 mmHg 81%
    01:00 +5°C° 0.6 mm 3 mps 762 mmHg 85%
    02:00 +5°C° 0.6 mm 4 mps 762 mmHg 89%
    03:00 +5°C° 0.6 mm 4 mps 761 mmHg 93%
    04:00 +6°C° 0.7 mm 4 mps 761 mmHg 93%
    05:00 +6°C° 0.7 mm 4 mps 761 mmHg 94%
    06:00 +7°C° 0.7 mm 4 mps 761 mmHg 95%
    07:00 +9°C° 0 mm 5 mps 761 mmHg 91%
    08:00 +12°C° 0 mm 5 mps 761 mmHg 87%
    09:00 +14°C° 0 mm 6 mps 761 mmHg 82%
    10:00 +14°C° 0 mm 6 mps 760 mmHg 80%
    11:00 +14°C° 0 mm 6 mps 760 mmHg 78%
    12:00 +15°C° 0 mm 6 mps 760 mmHg 76%
    13:00 +15°C° 0 mm 6 mps 760 mmHg 77%
    14:00 +15°C° 0 mm 5 mps 759 mmHg 77%
    15:00 +15°C° 0 mm 5 mps 759 mmHg 78%
    16:00 +15°C° 0 mm 5 mps 759 mmHg 80%
    17:00 +14°C° 0 mm 5 mps 759 mmHg 82%
    18:00 +14°C° 0 mm 4 mps 758 mmHg 85%
    19:00 +13°C° 0 mm 4 mps 758 mmHg 87%
    20:00 +12°C° 0 mm 4 mps 758 mmHg 90%
    21:00 +11°C° 0 mm 4 mps 758 mmHg 92%
    22:00 +10°C° 0 mm 4 mps 758 mmHg 93%
    23:00 +10°C° 0 mm 4 mps 758 mmHg 93%
    Show more